Regional Weather Roundup
Issued by NWS

Home | Current Version | Previous Version | Text Only | Print | Product List | Glossary On
Versions: 1 2 3 4 5 6 7 8 9 10 11 12 13 14 15 16 17 18 19 20 21 22 23 24 25 26 27 28 29 30 31 32 33 34 35 36 37 38 39 40 41 42 43 44 45 46 47 48 49 50
000
ASUS43 KMKX 281110
RWRWI

WISCONSIN REGIONAL WEATHER ROUNDUP
NATIONAL WEATHER SERVICE MILWAUKEE/SULLIVAN WI
600 AM CDT SAT MAR 28 2015

NOTE: "FAIR" INDICATES FEW OR NO CLOUDS BELOW 12,000 FEET WITH NO
SIGNIFICANT WEATHER AND/OR OBSTRUCTIONS TO VISIBILITY.

WIZ001-002-006>008-014>016-023>028-281200-
NORTHWEST WISCONSIN

CITY           SKY/WX    TMP DP  RH WIND       PRES   REMARKS
SUPERIOR ARPT  CLEAR     10   8  89 CALM      30.22S
ASHLAND        CLEAR      8   5  87 SW3       30.23R
HAYWARD        CLEAR     12   8  84 CALM      30.20R
SIREN          CLEAR     12   7  79 CALM      30.21R
CUMBERLAND     FAIR      19  18  93 CALM      30.19R
RICE LAKE      FAIR      16  13  88 CALM      30.22R
CHETEK         FAIR      14  12  93 CALM      30.21R
LADYSMITH      CLEAR     16  13  87 CALM      30.21R
EAU CLAIRE     CLEAR     15  11  83 CALM      30.21R
MENOMONIE      CLEAR     19  14  84 CALM      30.22R
NEW RICHMOND   CLEAR     19  15  86 CALM      30.21R
OSCEOLA        CLEAR     17  14  86 CALM      30.24R
$$

WIZ003>005-009-010-017-018-281200-
NORTH CENTRAL WISCONSIN

CITY           SKY/WX    TMP DP  RH WIND       PRES   REMARKS
MANITOWISH WTR CLEAR      4   1  88 CALM      30.18R
ARBOR VITAE    CLEAR      8   3  83 CALM      30.17S
WOODRUFF       CLEAR      8   3  83 CALM      30.17S
RHINELANDER    CLEAR      6   2  83 CALM      30.18R
EAGLE RIVER    CLEAR      1  -4  80 CALM      30.19R
LAND O LAKES   CLEAR     -7 -11  80 CALM      30.19R
PHILLIPS       CLEAR     10   6  86 CALM      30.17R
TOMAHAWK       CLEAR      5   2  88 CALM      30.19S
MEDFORD        CLEAR     13  10  87 SE3       30.18R
MERRILL        CLEAR      8   5  89 CALM      30.20S
$$

WIZ029-030-035-036-043>047-281200-
CENTRAL WISCONSIN

CITY           SKY/WX    TMP DP  RH WIND       PRES   REMARKS
WAUSAU         CLEAR     13   9  84 E3        30.20R
MOSINEE        CLEAR     12   9  85 E3        30.22R
MARSHFIELD     CLEAR     16  10  77 CALM      30.21R
STEVENS POINT  CLEAR      8   4  86 CALM      30.23R
WAUPACA        CLEAR     16  13  86 CALM      30.26R
WAUTOMA        CLEAR      9   6  87 CALM      30.26R
WISC RAPIDS    CLEAR     11   5  77 CALM      30.24R
CAMP DOUGLAS   CLEAR     11  10  98 E2        30.23R
$$

WIZ011>013-019>022-031-037>040-048>050-281200-
NORTHEAST WISCONSIN

CITY           SKY/WX    TMP DP  RH WIND       PRES   REMARKS
ANTIGO         CLEAR     11   5  75 S5        30.20R WCI   3
SHAWANO        CLEAR     13  10  87 CALM      30.27R
OCONTO         CLEAR      8   6  90 CALM      30.28R
STURGEON BAY   CLEAR     14   3  62 CALM      30.29R
GREEN BAY      CLEAR     18  10  71 CALM      30.27R
MANITOWOC      CLEAR     15  11  83 CALM      30.28R
APPLETON       CLEAR     16  10  79 VRB3      30.26R
CLINTONVILLE   CLEAR     14  10  85 CALM      30.26R
OSHKOSH        CLEAR     15  11  83 CALM      30.26R
$$

WIZ032>034-041-042-053>061-281200-
SOUTHWEST WISCONSIN

CITY           SKY/WX    TMP DP  RH WIND       PRES   REMARKS
LA CROSSE      MOCLDY    21  15  78 SE3       30.24R
SPARTA         PTCLDY    11   8  87 CALM      30.24R
VIROQUA        PTCLDY    19  10  67 SE7       30.20S WCI  10
BOSCOBEL       CLEAR     13  10  88 CALM      30.26R
PRAIRIE DU CHI PTCLDY    16  11  80 E5        30.26R WCI   9
PLATTEVILLE    CLEAR     20  15  79 CALM      30.23R
$$

WIZ056-057-062-063-064-067-068-281200-
SOUTH CENTRAL WISCONSIN

CITY           SKY/WX    TMP DP  RH WIND       PRES   REMARKS
REEDSBURG      CLEAR     16  11  80 CALM      30.24R
BARABOO/DELLS  CLEAR     15   8  75 CALM      30.23R
LONE ROCK      CLEAR     16   9  74 CALM      30.26R
MINERAL POINT  FLURRIES  19  12  73 SE5       30.22R WCI  13
MADISON        PTCLDY    16  11  80 CALM      30.25R
MIDDLETON      CLEAR     17  12  83 CALM      30.25R
WATERTOWN      CLEAR     14  11  91 CALM      30.26R
MONROE         CLEAR     19  16  86 SE6       30.23R WCI  11
JANESVILLE     CLEAR     18  14  86 CALM      30.26R
$$

WIZ051-052-058>065-066-070>072-281200-
SOUTHEAST WISCONSIN

CITY           SKY/WX    TMP DP  RH WIND       PRES   REMARKS
MILWAUKEE      PTCLDY    19  11  70 W5        30.27R WCI  12
WAUKESHA       CLEAR     16  12  86 CALM      30.27R
MILWAUKEE/TIMM CLEAR     16  10  79 W3        30.28R
RACINE         CLEAR     17  12  80 NW6       30.28R WCI   9
BURLINGTON     CLEAR     11   9  92 CALM      30.26R
KENOSHA        CLEAR     18  12  77 N6        30.26R WCI  10
FOND DU LAC    CLEAR     13   8  81 CALM      30.26R
SHEBOYGAN      CLEAR     15  11  83 CALM      30.26R
WEST BEND      CLEAR     14  12  92 CALM      30.26R
JUNEAU         CLEAR     15  11  85 CALM      30.27R
$$

LSZ147-162-281200-
LAKE SUPERIOR

STATION/POSITION TIME  TEMP    WIND        PRES    WAVE
                       AIR SEA DIR/SP/G            HT/PER
                 (UTC) (F)     (DEG/KT/KT) (MB)    (FT/S)
DEVILS ISLAND    1100   25     150/  3/  3 1024.7R
PORT WING        1040   13     140/  2/  4 1023.4R
SAXON HARBOR     1000   12        CALM     1023.0S
$$

LMZ867-665-643>646-281200-
LAKE MICHIGAN

STATION/POSITION TIME  TEMP    WIND        PRES    WAVE
                       AIR SEA DIR/SP/G            HT/PER
                 (UTC) (F)     (DEG/KT/KT) (MB)    (FT/S)
NORTHPORT PIER   1021   15     300/  3/  6 1025.1R
SISTER BAY       1002   11        CALM       N/A
KEWAUNEE LAKESHO 1000   17      CALM  /  3 1023.8R
SHEBOYGAN LAKESH 1100   20     300/  8/  9 1026.4R
PORT WASHINGTON  1000   20     310/  5/  8 1025.4R
MILWAUKEE LAKESH 1000   23     330/  4/  5   N/A
KENOSHA   LAKESH 1100   25      50/  7/ 10 1024.7R
$$

TC  - TEMPERATURE IN CELSIUS
VSB - VISIBILITY IN STATUTE MILES
WCI - WIND CHILL INDEX
HX  - HEAT INDEX



USA.gov is the U.S. government's official web portal to all federal, state and local government web resources and services.